When you browse on this site, cookies collect data to enhance your experience and personalize the content and advertising you see.
Visit our Privacy Policy to learn more. By continuing to use the site, you agree to this use of cookies and data.
  • en France
  • Liste des pays
  • À 7 jours
  • Température de l'eau
  • Carte satellitaire
  • Carte météo
  • Widgets météo
  • user-avatar
    Se connecter

    Météo par heure à Sydney

    Ce jour, 18 Décembre, Mardi

    Heure Température Précipitation Vent Pression Humidité
    00:00 +21°C° 0 mm 3 m/s 758 mmHg 89%
    01:00 +21°C° 0 mm 3 m/s 758 mmHg 91%
    02:00 +21°C° 0 mm 3 m/s 758 mmHg 91%
    03:00 +21°C° 0 mm 3 m/s 758 mmHg 91%
    04:00 +21°C° 0 mm 3 m/s 758 mmHg 90%
    05:00 +22°C° 0 mm 3 m/s 758 mmHg 88%
    06:00 +22°C° 0 mm 3 m/s 758 mmHg 85%
    07:00 +22°C° 0 mm 4 m/s 759 mmHg 83%
    08:00 +23°C° 0 mm 4 m/s 759 mmHg 78%
    09:00 +26°C° 0 mm 4 m/s 759 mmHg 73%
    10:00 +27°C° 0 mm 4 m/s 759 mmHg 68%
    11:00 +28°C° 0 mm 5 m/s 759 mmHg 63%
    12:00 +29°C° 0 mm 5 m/s 759 mmHg 58%
    13:00 +32°C° 0 mm 5 m/s 758 mmHg 54%
    14:00 +30°C° 0 mm 5 m/s 758 mmHg 57%
    15:00 +29°C° 0 mm 5 m/s 758 mmHg 60%
    16:00 +27°C° 0 mm 6 m/s 758 mmHg 67%
    17:00 +26°C° 0 mm 5 m/s 758 mmHg 71%
    18:00 +25°C° 0 mm 5 m/s 759 mmHg 76%
    19:00 +23°C° 0 mm 5 m/s 759 mmHg 80%
    20:00 +22°C° 0 mm 5 m/s 760 mmHg 82%
    21:00 +22°C° 0 mm 4 m/s 760 mmHg 84%
    22:00 +22°C° 0 mm 3 m/s 760 mmHg 88%
    23:00 +22°C° 0.2 mm 3 m/s 760 mmHg 89%

    Demain, 19 Décembre, Mercredi

    Heure Température Précipitation Vent Pression Humidité
    00:00 +22°C° 0.2 mm 3 m/s 760 mmHg 89%
    01:00 +21°C° 0.2 mm 4 m/s 760 mmHg 89%
    02:00 +21°C° 0.1 mm 4 m/s 760 mmHg 90%
    03:00 +21°C° 0.1 mm 3 m/s 759 mmHg 90%
    04:00 +21°C° 0.1 mm 3 m/s 759 mmHg 91%
    05:00 +21°C° 0.1 mm 3 m/s 759 mmHg 91%
    06:00 +21°C° 0.1 mm 3 m/s 760 mmHg 91%
    07:00 +21°C° 0.1 mm 3 m/s 760 mmHg 91%
    08:00 +22°C° 0.1 mm 3 m/s 760 mmHg 88%
    09:00 +24°C° 0.1 mm 3 m/s 760 mmHg 86%
    10:00 +24°C° 0.1 mm 3 m/s 760 mmHg 84%
    11:00 +25°C° 0.1 mm 3 m/s 759 mmHg 81%
    12:00 +26°C° 0.1 mm 3 m/s 759 mmHg 78%
    13:00 +27°C° 0.1 mm 4 m/s 758 mmHg 75%
    14:00 +26°C° 0.3 mm 4 m/s 758 mmHg 76%
    15:00 +26°C° 0.3 mm 4 m/s 758 mmHg 78%
    16:00 +26°C° 0.3 mm 5 m/s 757 mmHg 80%
    17:00 +25°C° 0.7 mm 4 m/s 757 mmHg 85%
    18:00 +25°C° 0.7 mm 4 m/s 757 mmHg 89%
    19:00 +24°C° 0.7 mm 3 m/s 757 mmHg 94%
    20:00 +24°C° 1.3 mm 3 m/s 757 mmHg 94%
    21:00 +24°C° 1.3 mm 3 m/s 758 mmHg 95%
    22:00 +24°C° 1.3 mm 3 m/s 758 mmHg 96%
    23:00 +24°C° 0 mm 2 m/s 758 mmHg 96%

    Après-demain, 20 Décembre, Jeudi

    Heure Température Précipitation Vent Pression Humidité
    00:00 +23°C° 0 mm 1 m/s 757 mmHg 97%
    01:00 +23°C° 0 mm 1 m/s 756 mmHg 97%
    02:00 +23°C° 0 mm 1 m/s 756 mmHg 97%
    03:00 +23°C° 0 mm 1 m/s 756 mmHg 97%
    04:00 +23°C° 0 mm 1 m/s 755 mmHg 98%
    05:00 +23°C° 0 mm 1 m/s 755 mmHg 95%
    06:00 +24°C° 0 mm 1 m/s 755 mmHg 93%
    07:00 +25°C° 0 mm 1 m/s 755 mmHg 91%
    08:00 +27°C° 0 mm 1 m/s 755 mmHg 79%
    09:00 +30°C° 0 mm 1 m/s 755 mmHg 67%
    10:00 +33°C° 0 mm 1 m/s 754 mmHg 55%
    11:00 +36°C° 0 mm 2 m/s 753 mmHg 49%
    12:00 +38°C° 0 mm 3 m/s 752 mmHg 42%
    13:00 +41°C° 0 mm 4 m/s 752 mmHg 35%
    14:00 +37°C° 0.8 mm 5 m/s 750 mmHg 46%
    15:00 +35°C° 0.8 mm 6 m/s 749 mmHg 56%
    16:00 +32°C° 0.8 mm 6 m/s 748 mmHg 67%
    17:00 +32°C° 0.7 mm 6 m/s 748 mmHg 67%
    18:00 +30°C° 0.7 mm 6 m/s 748 mmHg 68%
    19:00 +30°C° 0.7 mm 7 m/s 748 mmHg 68%
    20:00 +28°C° 1 mm 7 m/s 748 mmHg 75%
    21:00 +27°C° 1 mm 7 m/s 749 mmHg 81%
    22:00 +26°C° 1 mm 8 m/s 750 mmHg 88%
    23:00 +24°C° 0 mm 7 m/s 750 mmHg 86%

    21 Décembre, Vendredi

    Heure Température Précipitation Vent Pression Humidité
    00:00 +24°C° 0 mm 7 m/s 750 mmHg 84%
    01:00 +24°C° 0 mm 7 m/s 751 mmHg 82%
    02:00 +23°C° 0 mm 7 m/s 751 mmHg 81%
    03:00 +22°C° 0 mm 7 m/s 751 mmHg 79%
    04:00 +22°C° 0 mm 7 m/s 751 mmHg 77%
    05:00 +22°C° 0 mm 7 m/s 752 mmHg 74%
    06:00 +22°C° 0 mm 7 m/s 753 mmHg 71%
    07:00 +22°C° 0 mm 7 m/s 753 mmHg 68%
    08:00 +24°C° 0 mm 7 m/s 753 mmHg 63%
    09:00 +26°C° 0 mm 7 m/s 753 mmHg 57%
    10:00 +28°C° 0 mm 7 m/s 754 mmHg 52%
    11:00 +28°C° 0 mm 7 m/s 753 mmHg 51%
    12:00 +28°C° 0 mm 6 m/s 753 mmHg 50%
    13:00 +29°C° 0 mm 6 m/s 753 mmHg 49%
    14:00 +28°C° 0 mm 6 m/s 752 mmHg 52%
    15:00 +27°C° 0 mm 6 m/s 752 mmHg 55%
    16:00 +26°C° 0 mm 6 m/s 752 mmHg 59%
    17:00 +25°C° 0 mm 5 m/s 752 mmHg 63%
    18:00 +23°C° 0 mm 5 m/s 753 mmHg 67%
    19:00 +22°C° 0 mm 4 m/s 753 mmHg 72%
    20:00 +22°C° 0 mm 4 m/s 754 mmHg 73%
    21:00 +21°C° 0 mm 3 m/s 754 mmHg 75%
    22:00 +21°C° 0 mm 3 m/s 755 mmHg 77%
    23:00 +21°C° 0 mm 3 m/s 754 mmHg 77%

    22 Décembre, Samedi

    Heure Température Précipitation Vent Pression Humidité
    00:00 +21°C° 0 mm 3 m/s 754 mmHg 78%
    01:00 +20°C° 0 mm 3 m/s 754 mmHg 78%
    02:00 +20°C° 0 mm 4 m/s 754 mmHg 80%
    03:00 +19°C° 0 mm 4 m/s 754 mmHg 82%
    04:00 +19°C° 0 mm 5 m/s 754 mmHg 83%
    05:00 +19°C° 0 mm 5 m/s 755 mmHg 78%
    06:00 +20°C° 0 mm 5 m/s 755 mmHg 73%
    07:00 +21°C° 0 mm 6 m/s 756 mmHg 68%
    08:00 +22°C° 0 mm 6 m/s 756 mmHg 63%
    09:00 +23°C° 0 mm 7 m/s 756 mmHg 58%
    10:00 +24°C° 0 mm 7 m/s 757 mmHg 54%
    11:00 +26°C° 0.1 mm 7 m/s 757 mmHg 52%
    12:00 +26°C° 0.1 mm 8 m/s 757 mmHg 50%
    13:00 +26°C° 0.1 mm 8 m/s 757 mmHg 48%
    14:00 +26°C° 0 mm 8 m/s 757 mmHg 49%
    15:00 +24°C° 0 mm 8 m/s 757 mmHg 51%
    16:00 +24°C° 0 mm 8 m/s 758 mmHg 52%
    17:00 +22°C° 0 mm 7 m/s 758 mmHg 56%
    18:00 +21°C° 0 mm 7 m/s 759 mmHg 61%
    19:00 +20°C° 0 mm 6 m/s 760 mmHg 65%
    20:00 +19°C° 0 mm 6 m/s 761 mmHg 69%
    21:00 +17°C° 0 mm 6 m/s 761 mmHg 73%
    22:00 +17°C° 0 mm 5 m/s 762 mmHg 77%
    23:00 +16°C° 0 mm 5 m/s 762 mmHg 78%

    23 Décembre, Dimanche

    Heure Température Précipitation Vent Pression Humidité
    00:00 +16°C° 0 mm 5 m/s 761 mmHg 80%
    01:00 +16°C° 0 mm 5 m/s 761 mmHg 82%
    02:00 +16°C° 0.1 mm 5 m/s 762 mmHg 83%
    03:00 +15°C° 0.1 mm 5 m/s 762 mmHg 84%
    04:00 +15°C° 0.1 mm 5 m/s 762 mmHg 85%
    05:00 +17°C° 0.1 mm 4 m/s 763 mmHg 81%
    06:00 +18°C° 0.1 mm 4 m/s 763 mmHg 76%
    07:00 +19°C° 0.1 mm 4 m/s 764 mmHg 72%
    08:00 +20°C° 0.1 mm 4 m/s 764 mmHg 66%
    09:00 +22°C° 0.1 mm 4 m/s 764 mmHg 61%
    10:00 +23°C° 0.1 mm 4 m/s 764 mmHg 55%
    11:00 +25°C° 0 mm 4 m/s 764 mmHg 52%
    12:00 +25°C° 0 mm 4 m/s 764 mmHg 49%
    13:00 +26°C° 0 mm 4 m/s 764 mmHg 46%
    14:00 +26°C° 0 mm 4 m/s 763 mmHg 46%
    15:00 +26°C° 0 mm 4 m/s 763 mmHg 46%
    16:00 +26°C° 0 mm 4 m/s 763 mmHg 46%
    17:00 +23°C° 0 mm 4 m/s 763 mmHg 51%
    18:00 +22°C° 0 mm 3 m/s 764 mmHg 56%
    19:00 +20°C° 0 mm 3 m/s 764 mmHg 61%
    20:00 +19°C° 0 mm 3 m/s 765 mmHg 65%
    21:00 +18°C° 0 mm 2 m/s 765 mmHg 69%
    22:00 +17°C° 0 mm 2 m/s 766 mmHg 72%
    23:00 +17°C° 0 mm 2 m/s 765 mmHg 75%
    Voir plus